H1 CPF 1 NER 2011 12 25 9 8591 glonass123 H2 1004102 9123 37138 2011 12 25 0 0 0 2011 12 28 23 45 0 900 1 1 0 0 0 H9 10 0 55920 0.00000 0 11364319.338 -11426320.018 19811219.744 10 0 55920 900.00000 0 10928720.761 -8926861.432 21270282.263 10 0 55920 1800.00000 0 10668469.698 -6246851.549 22317096.553 10 0 55920 2700.00000 0 10606660.520 -3451158.808 22930736.951 10 0 55920 3600.00000 0 10754587.937 -608817.287 23098627.237 10 0 55920 4500.00000 0 11111188.928 2209595.307 22816834.809 10 0 55920 5400.00000 0 11663021.296 4934655.342 22090198.892 10 0 55920 6300.00000 0 12384784.784 7500754.890 20932286.248 10 0 55920 7200.00000 0 13240367.238 9848615.225 19365171.328 10 0 55920 8100.00000 0 14184375.361 11927545.087 17419041.508 10 0 55920 9000.00000 0 15164087.827 13697346.105 15131632.103 10 0 55920 9900.00000 0 16121749.047 15129781.875 12547500.144 10 0 55920 10800.00000 0 16997105.704 16209545.554 9717150.173 10 0 55920 11700.00000 0 17730076.291 16934682.388 6696029.424 10 0 55920 12600.00000 0 18263436.831 17316447.574 3543413.741 10 0 55920 13500.00000 0 18545404.399 17378605.129 321208.747 10 0 55920 14400.00000 0 18532004.138 17156198.706 -2907306.562 10 0 55920 15300.00000 0 18189114.912 16693849.129 -6078764.855 10 0 55920 16200.00000 0 17494103.316 16043654.872 -9130994.484 10 0 55920 17100.00000 0 16436974.531 15262789.328 -12004273.107 10 0 55920 18000.00000 0 15020990.588 14410901.833 -14642522.650 10 0 55920 18900.00000 0 13262730.749 13547437.366 -16994419.577 10 0 55920 19800.00000 0 11191593.635 12728992.321 -19014397.308 10 0 55920 20700.00000 0 8848765.351 12006820.721 -20663520.987 10 0 55920 21600.00000 0 6285700.715 11424597.169 -21910218.707 10 0 55920 22500.00000 0 3562184.982 11016530.113 -22730857.312 10 0 55920 23400.00000 0 744060.389 10805902.549 -23110154.764 10 0 55920 24300.00000 0 -2099285.423 10804097.903 -23041425.037 10 0 55920 25200.00000 0 -4897563.704 11010147.534 -22526654.964 10 0 55920 26100.00000 0 -7582252.219 11410814.082 -21576415.693 10 0 55920 27000.00000 0 -10089177.623 11981202.577 -20209614.264 10 0 55920 27900.00000 0 -12360908.952 12685869.899 -18453093.226 10 0 55920 28800.00000 0 -14348867.356 13480383.337 -16341088.361 10 0 55920 29700.00000 0 -16015069.707 14313261.617 -13914556.316 10 0 55920 30600.00000 0 -17333438.933 15128217.129 -11220385.441 10 0 55920 31500.00000 0 -18290631.418 15866606.798 -8310504.471 10 0 55920 32400.00000 0 -18886351.171 16469991.377 -5240904.722 10 0 55920 33300.00000 0 -19133140.602 16882699.116 -2070592.368 10 0 55920 34200.00000 0 -19055658.144 17054289.816 1139511.715 10 0 55920 35100.00000 0 -18689473.071 16941819.281 4327706.518 10 0 55920 36000.00000 0 -18079426.671 16511811.908 7432661.335 10 0 55920 36900.00000 0 -17277626.018 15741860.332 10394563.020 10 0 55920 37800.00000 0 -16341151.281 14621785.470 13156240.922 10 0 55920 38700.00000 0 -15329569.147 13154307.172 15664250.343 10 0 55920 39600.00000 0 -14302353.265 11355194.826 17869895.353 10 0 55920 40500.00000 0 -13316317.038 9252887.698 19730172.387 10 0 55920 41400.00000 0 -12423164.523 6887595.875 21208616.652 10 0 55920 42300.00000 0 -11667261.501 4309913.888 22276034.252 10 0 55920 43200.00000 0 -11083720.860 1578999.155 22911104.345 10 0 55920 44100.00000 0 -10696884.659 -1239614.076 23100837.235 10 0 55920 45000.00000 0 -10519269.757 -4076478.481 22840876.369 10 0 55920 45900.00000 0 -10551025.332 -6860875.550 22135634.724 10 0 55920 46800.00000 0 -10779929.569 -9523527.113 20998258.945 10 0 55920 47700.00000 0 -11181930.037 -11999263.271 19450417.996 10 0 55920 48600.00000 0 -11722208.824 -14229533.848 17521916.775 10 0 55920 49500.00000 0 -12356730.278 -16164655.639 15250139.187 10 0 55920 50400.00000 0 -13034207.384 -17765697.736 12679329.465 10 0 55920 51300.00000 0 -13698403.410 -19005922.084 9859724.771 10 0 55920 52200.00000 0 -14290669.577 -19871715.290 6846556.275 10 0 55920 53100.00000 0 -14752607.976 -20362969.755 3698939.859 10 0 55920 54000.00000 0 -15028742.504 -20492896.811 478680.840 10 0 55920 54900.00000 0 -15069079.669 -20287279.942 -2750980.245 10 0 55920 55800.00000 0 -14831445.771 -19783201.544 -5926651.895 10 0 55920 56700.00000 0 -14283497.111 -19027300.406 -8986076.317 10 0 55920 57600.00000 0 -13404314.824 -18073638.110 -11869385.092 10 0 55920 58500.00000 0 -12185515.120 -16981269.712 -14520297.497 10 0 55920 59400.00000 0 -10631827.807 -15811626.504 -16887235.353 10 0 55920 60300.00000 0 -8761119.974 -14625825.960 -18924331.079 10 0 55920 61200.00000 0 -6603866.472 -13482025.828 -20592308.995 10 0 55920 62100.00000 0 -4202092.813 -12432935.734 -21859223.814 10 0 55920 63000.00000 0 -1607838.485 -11523591.237 -22701044.232 10 0 55920 63900.00000 0 1118791.466 -10789482.316 -23102073.443 10 0 55920 64800.00000 0 3911902.561 -10255111.806 -23055202.336 10 0 55920 65700.00000 0 6702318.296 -9933039.927 -22561994.621 10 0 55920 66600.00000 0 9420214.201 -9823450.081 -21632606.399 10 0 55920 67500.00000 0 11997770.440 -9914249.008 -20285545.497 10 0 55920 68400.00000 0 14371735.494 -10181692.487 -18547278.390 10 0 55920 69300.00000 0 16485798.282 -10591506.648 -16451694.647 10 0 55920 70200.00000 0 18292674.956 -11100455.386 -14039440.646 10 0 55920 71100.00000 0 19755828.754 -11658287.146 -11357135.755 10 0 55920 72000.00000 0 20850756.274 -12209979.830 -8456485.596 10 0 55920 72900.00000 0 21565791.058 -12698191.327 -5393308.012 10 0 55920 73800.00000 0 21902394.428 -13065815.537 -2226488.276 10 0 55920 74700.00000 0 21874923.520 -13258539.863 983118.998 10 0 55920 75600.00000 0 21509887.027 -13227300.195 4173823.249 10 0 55920 76500.00000 0 20844719.039 -12930533.384 7284248.129 10 0 55920 77400.00000 0 19926120.346 -12336134.849 10254479.418 10 0 55920 78300.00000 0 18808033.732 -11423040.288 13027191.545 10 0 55920 79200.00000 0 17549334.482 -10182364.770 15548733.538 10 0 55920 80100.00000 0 16211329.149 -8618049.646 17770155.267 10 0 55920 81000.00000 0 14855163.969 -6746986.885 19648155.332 10 0 55920 81900.00000 0 13539248.726 -4598611.091 21145932.620 10 0 55920 82800.00000 0 12316802.412 -2213970.893 22233924.352 10 0 55920 83700.00000 0 11233623.091 355687.312 22890414.885 10 0 55920 84600.00000 0 10326176.393 3050769.892 23102001.087 10 0 55920 85500.00000 0 9620085.049 5805548.596 22863902.125 10 0 55921 0.00000 0 9129086.073 8550646.955 22180104.080 10 0 55921 900.00000 0 8854503.523 11215699.473 21063332.419 10 0 55921 1800.00000 0 8785262.516 13732073.253 19534849.345 10 0 55921 2700.00000 0 8898448.996 16035537.722 17624075.673 10 0 55921 3600.00000 0 9160393.394 18068769.028 15368042.067 10 0 55921 4500.00000 0 9528235.325 19783580.377 12810677.903 10 0 55921 5400.00000 0 9951903.165 21142781.244 10001950.718 10 0 55921 6300.00000 0 10376423.682 22121583.356 6996873.203 10 0 55921 7200.00000 0 10744461.151 22708490.884 3854398.729 10 0 55921 8100.00000 0 10998974.334 22905635.070 636229.671 10 0 55921 9000.00000 0 11085873.824 22728538.373 -2594434.561 10 0 55921 9900.00000 0 10956561.976 22205318.832 -5774180.925 10 0 55921 10800.00000 0 10570242.873 21375370.755 -8840667.984 10 0 55921 11700.00000 0 9895900.510 20287581.236 -11733883.570 10 0 55921 12600.00000 0 8913858.711 18998162.621 -14397346.422 10 0 55921 13500.00000 0 7616855.688 17568197.532 -16779225.583 10 0 55921 14400.00000 0 6010588.194 16061004.889 -18833354.101 10 0 55921 15300.00000 0 4113704.233 14539441.973 -20520116.869 10 0 55921 16200.00000 0 1957247.471 13063258.786 -21807196.393 10 0 55921 17100.00000 0 -416419.855 11686616.951 -22670164.170 10 0 55921 18000.00000 0 -2955166.775 10455876.595 -23092909.322 10 0 55921 18900.00000 0 -5599048.279 9407741.603 -23067900.053 10 0 55921 19800.00000 0 -8282581.123 8567837.048 -22596277.013 10 0 55921 20700.00000 0 -10937244.827 7949773.569 -21687780.912 10 0 55921 21600.00000 0 -13494104.295 7554732.487 -20360519.600 10 0 55921 22500.00000 0 -15886446.874 7371583.834 -18640582.302 10 0 55921 23400.00000 0 -18052327.305 7377527.739 -16561510.838 10 0 55921 24300.00000 0 -19936919.004 7539228.779 -14163639.480 10 0 55921 25200.00000 0 -21494578.600 7814393.559 -11493316.576 10 0 55921 26100.00000 0 -22690542.683 8153724.689 -8602022.479 10 0 55921 27000.00000 0 -23502190.652 8503169.881 -5545399.354 10 0 55921 27900.00000 0 -23919824.795 8806373.713 -2382209.360 10 0 55921 28800.00000 0 -23946937.673 9007231.927 826761.362 10 0 55921 29700.00000 0 -23599956.985 9052444.206 4019834.909 10 0 55921 30600.00000 0 -22907478.457 8893961.399 7135591.529 10 0 55921 31500.00000 0 -21909017.350 8491227.107 10114018.184 10 0 55921 32400.00000 0 -20653328.208 7813121.211 12897636.658 10 0 55921 33300.00000 0 -19196359.668 6839524.222 15432591.982 10 0 55921 34200.00000 0 -17598926.067 5562435.871 17669682.041 10 0 55921 35100.00000 0 -15924189.397 3986598.526 19565309.710 10 0 55921 36000.00000 0 -14235053.574 2129595.436 21082339.465 10 0 55921 36900.00000 0 -12591577.539 21414.712 22190841.308 10 0 55921 37800.00000 0 -11048514.040 -2296508.371 22868706.145 10 0 55921 38700.00000 0 -9653077.001 -4772736.732 23102118.406 10 0 55921 39600.00000 0 -8443032.273 -7347709.597 22885873.602 10 0 55921 40500.00000 0 -7445194.141 -9955979.714 22223531.096 10 0 55921 41400.00000 0 -6674393.988 -12528719.758 21127395.124 10 0 55921 42300.00000 0 -6132968.238 -14996395.004 19618320.489 10 0 55921 43200.00000 0 -5810790.914 -17291490.784 17725343.001 10 0 55921 44100.00000 0 -5685852.744 -19351179.168 15485138.757 10 0 55921 45000.00000 0 -5725364.786 -21119810.244 12941320.625 10 0 55921 45900.00000 0 -5887340.969 -22551119.777 10143584.568 10 0 55921 46800.00000 0 -6122592.107 -23610056.330 7146722.613 10 0 55921 47700.00000 0 -6377044.911 -24274146.999 4009523.245 10 0 55921 48600.00000 0 -6594284.172 -24534341.077 793583.376 10 0 55921 49500.00000 0 -6718205.794 -24395294.197 -2437941.348 10 0 55921 50400.00000 0 -6695662.984 -23875080.597 -5621619.078 10 0 55921 51300.00000 0 -6478988.259 -23004347.059 -8695027.565 10 0 55921 52200.00000 0 -6028279.735 -21824947.139 -11598013.783 10 0 55921 53100.00000 0 -5313351.403 -20388117.493 -14273898.837 10 0 55921 54000.00000 0 -4315262.742 -18752278.084 -16670601.843 10 0 55921 54900.00000 0 -3027362.524 -16980553.920 -18741659.173 10 0 55921 55800.00000 0 -1455803.827 -15138127.129 -20447118.735 10 0 55921 56700.00000 0 380489.160 -13289534.074 -21754292.916 10 0 55921 57600.00000 0 2450397.980 -11496022.823 -22638357.664 10 0 55921 58500.00000 0 4711702.585 -9813081.983 -23082789.191 10 0 55921 59400.00000 0 7112640.728 -8288242.702 -23079633.675 10 0 55921 60300.00000 0 9593866.140 -6959242.557 -22629608.866 10 0 55921 61200.00000 0 12090721.990 -5852623.610 -21742039.783 10 0 55921 62100.00000 0 14535734.460 -4982817.912 -20434633.569 10 0 55921 63000.00000 0 16861223.616 -4351753.106 -18733101.057 10 0 55921 63900.00000 0 19001925.142 -3948989.419 -16670634.783 10 0 55921 64800.00000 0 20897517.343 -3752377.845 -14287254.988 10 0 55921 65700.00000 0 22494952.494 -3729208.730 -11629036.693 10 0 55921 66600.00000 0 23750500.013 -3837800.823 -8747232.315 10 0 55921 67500.00000 0 24631420.932 -4029463.830 -5697305.352 10 0 55921 68400.00000 0 25117207.813 -4250753.195 -2537891.619 10 0 55921 69300.00000 0 25200341.412 -4445924.598 670294.586 10 0 55921 70200.00000 0 24886534.375 -4559488.001 3865591.417 10 0 55921 71100.00000 0 24194452.206 -4538757.133 6986539.017 10 0 55921 72000.00000 0 23154922.206 -4336290.255 9973028.650 10 0 55921 72900.00000 0 21809661.212 -3912122.018 12767432.286 10 0 55921 73800.00000 0 20209572.043 -3235693.862 15315693.462 10 0 55921 74700.00000 0 18412675.957 -2287401.875 17568360.218 10 0 55921 75600.00000 0 16481763.347 -1059695.561 19481541.462 10 0 55921 76500.00000 0 14481856.926 442321.645 21017768.655 10 0 55921 77400.00000 0 12477590.087 2200819.565 22146745.598 10 0 55921 78300.00000 0 10530607.709 4185704.562 22845970.403 10 0 55921 79200.00000 0 8697096.897 6355605.373 23101215.325 10 0 55921 80100.00000 0 7025551.237 8659346.036 22906852.091 10 0 55921 81000.00000 0 5554863.606 11037849.602 22266012.827 10 0 55921 81900.00000 0 4312830.011 13426397.316 21190579.527 10 0 55921 82800.00000 0 3315130.601 15757151.457 19700998.274 10 0 55921 83700.00000 0 2564834.245 17961837.453 17825918.135 10 0 55921 84600.00000 0 2052450.940 19974472.293 15601658.591 10 0 55921 85500.00000 0 1756532.634 21734022.577 13071513.671 10 0 55922 0.00000 0 1644798.692 23186877.261 10284905.280 10 0 55922 900.00000 0 1675738.615 24289026.762 7296401.921 10 0 55922 1800.00000 0 1800622.915 25007853.011 4164624.404 10 0 55922 2700.00000 0 1965833.918 25323449.869 951061.252 10 0 55922 3600.00000 0 2115413.688 25229416.940 -2281178.576 10 0 55922 4500.00000 0 2193715.940 24733090.631 -5468647.271 10 0 55922 5400.00000 0 2148044.213 23855203.509 -8548844.467 10 0 55922 6300.00000 0 1931159.410 22628988.060 -11461478.746 10 0 55922 7200.00000 0 1503546.289 21098766.019 -14149675.787 10 0 55922 8100.00000 0 835340.030 19318087.071 -16561106.698 10 0 55922 9000.00000 0 -92170.012 17347500.113 -18649012.802 10 0 55922 9900.00000 0 -1285522.609 15252055.501 -20373106.381 10 0 55922 10800.00000 0 -2738594.295 13098647.038 -21700330.788 10 0 55922 11700.00000 0 -4432654.209 10953307.829 -22605467.248 10 0 55922 12600.00000 0 -6336958.332 8878574.277 -23071579.613 10 0 55922 13500.00000 0 -8409854.610 6931027.711 -23090292.264 10 0 55922 14400.00000 0 -10600349.474 5159113.865 -22661899.912 10 0 55922 15300.00000 0 -12850067.759 3601327.340 -21795311.343 10 0 55922 16200.00000 0 -15095522.964 2284831.752 -20507832.014 10 0 55922 17100.00000 0 -17270603.210 1224567.535 -18824792.968 10 0 55922 18000.00000 0 -19309170.677 422879.077 -16779035.666 10 0 55922 18900.00000 0 -21147668.859 -130328.413 -14410264.221 10 0 55922 19800.00000 0 -22727632.695 -456912.967 -11764278.001 10 0 55922 20700.00000 0 -23998001.101 -589331.983 -8892099.023 10 0 55922 21600.00000 0 -24917139.922 -569040.529 -5849009.599 10 0 55922 22500.00000 0 -25454494.988 -444518.888 -2693516.664 10 0 55922 23400.00000 0 -25591809.618 -269010.669 513739.846 10 0 55922 24300.00000 0 -25323858.020 -98064.051 3711116.637 10 0 55922 25200.00000 0 -24658664.943 13023.557 6837116.223 10 0 55922 26100.00000 0 -23617201.939 11753.211 9831536.596 10 0 55922 27000.00000 0 -22232571.150 -149139.823 12636602.298 10 0 55922 27900.00000 0 -20548707.716 -509462.670 15198057.645 10 0 55922 28800.00000 0 -18618651.156 -1099646.366 17466202.963 10 0 55922 29700.00000 0 -16502453.576 -1939213.470 19396855.094 10 0 55922 30600.00000 0 -14264807.616 -3035698.184 20952214.107 10 0 55922 31500.00000 0 -11972489.213 -4384067.743 22101618.868 10 0 55922 32400.00000 0 -9691718.711 -5966674.021 22822175.575 10 0 55922 33300.00000 0 -7485548.409 -7753742.878 23099244.789 10 0 55922 34200.00000 0 -5411384.924 -9704386.501 22926774.523 10 0 55922 35100.00000 0 -3518750.492 -11768101.929 22307469.361 10 0 55922 36000.00000 0 -1847378.625 -13886697.840 21252788.382 10 0 55922 36900.00000 0 -425726.756 -15996572.427 19782767.943 10 0 55922 37800.00000 0 730028.434 -18031248.914 17925669.042 10 0 55922 38700.00000 0 1616467.363 -19924062.686 15717452.929 10 0 55922 39600.00000 0 2242852.388 -21610885.703 13201092.911 10 0 55922 40500.00000 0 2630502.197 -23032770.831 10425734.582 10 0 55922 41400.00000 0 2811641.273 -24138400.858 7445720.868 10 0 55922 42300.00000 0 2827773.629 -24886234.514 4319502.335 10 0 55922 43200.00000 0 2727651.880 -25246254.673 1108456.596 10 0 55922 44100.00000 0 2564931.277 -25201241.258 -2124356.645 10 0 55922 45000.00000 0 2395612.806 -24747512.661 -5315476.197 10 0 55922 45900.00000 0 2275389.052 -23895103.436 -8402326.151 10 0 55922 46800.00000 0 2257010.636 -22667371.534 -11324479.245 10 0 55922 47700.00000 0 2387789.557 -21100053.995 -14024868.223 10 0 55922 48600.00000 0 2707348.823 -19239814.548 -16450918.582 10 0 55922 49500.00000 0 3245715.811 -17142348.630 -18555578.828 10 0 55922 50400.00000 0 4021840.509 -14870130.173 -20298227.614 10 0 55922 51300.00000 0 5042600.204 -12489898.913 -21645440.953 10 0 55922 52200.00000 0 6302330.256 -10069996.700 -22571606.673 10 0 55922 53100.00000 0 7782897.383 -7677666.185 -23059377.176 10 0 55922 54000.00000 0 9454308.694 -5376424.784 -23099955.532 10 0 55922 54900.00000 0 11275827.251 -3223621.929 -22693213.499 10 0 55922 55800.00000 0 13197544.349 -1268278.283 -21847643.315 10 0 55922 56700.00000 0 15162340.611 450707.618 -20580148.071 10 0 55922 57600.00000 0 17108153.117 1905915.921 -18915677.980 10 0 55922 58500.00000 0 18970454.317 3082274.394 -16886722.048 10 0 55922 59400.00000 0 20684841.078 3977409.018 -14532666.527 10 0 55922 60300.00000 0 22189628.790 4601466.469 -11899033.045 10 0 55922 61200.00000 0 23428345.904 4976419.552 -9036610.794 10 0 55922 62100.00000 0 24352028.971 5134887.035 -6000498.167 10 0 55922 63000.00000 0 24921226.399 5118518.142 -2849070.246 10 0 55922 63900.00000 0 25107630.804 4976008.827 357110.527 10 0 55922 64800.00000 0 24895274.446 4760831.293 3556422.593 10 0 55922 65700.00000 0 24281239.277 4528769.402 6687333.962 10 0 55922 66600.00000 0 23275852.036 4335360.410 9689552.344 10 0 55922 67500.00000 0 21902354.934 4233347.441 12505157.611 10 0 55922 68400.00000 0 20196063.038 4270247.214 15079697.358 10 0 55922 69300.00000 0 18203039.902 4486133.588 17363226.388 10 0 55922 70200.00000 0 15978342.273 4911729.636 19311271.373 10 0 55922 71100.00000 0 13583902.413 5566889.454 20885702.544 10 0 55922 72000.00000 0 11086131.834 6459535.897 22055495.092 10 0 55922 72900.00000 0 8553342.457 7585102.650 22797364.200 10 0 55922 73800.00000 0 6053089.665 8926508.939 23096259.272 10 0 55922 74700.00000 0 3649546.487 10454673.346 22945704.736 10 0 55922 75600.00000 0 1401018.043 12129550.801 22347977.312 10 0 55922 76500.00000 0 -642298.898 13901654.417 21314112.378 10 0 55922 77400.00000 0 -2440215.367 15714002.458 19863735.308 10 0 55922 78300.00000 0 -3964026.119 17504411.566 18024717.326 10 0 55922 79200.00000 0 -5197496.735 19208041.075 15832659.344 10 0 55922 80100.00000 0 -6137317.102 20760080.807 13330211.515 10 0 55922 81000.00000 0 -6792999.520 22098467.032 10566240.505 10 0 55922 81900.00000 0 -7186224.153 23166508.608 7594860.678 10 0 55922 82800.00000 0 -7349659.235 23915308.133 4474349.458 10 0 55922 83700.00000 0 -7325307.288 24305871.291 1265970.533 10 0 55922 84600.00000 0 -7162450.309 24310810.992 -1967268.639 10 0 55922 85500.00000 0 -6915285.089 23915570.939 -5161896.400 10 0 55923 0.00000 0 -6640353.945 23119114.999 -8255263.999 10 0 55923 900.00000 0 -6393885.386 21934052.540 -11186811.012 10 0 55923 1800.00000 0 -6229161.705 20386196.644 -13899279.500 10 0 55923 2700.00000 0 -6194030.667 18513575.159 -16339851.344 10 0 55923 3600.00000 0 -6328668.037 16364941.372 -18461183.945 10 0 55923 4500.00000 0 -6663688.020 13997850.453 -20222323.730 10 0 55923 5400.00000 0 -7218680.681 11476387.019 -21589480.487 10 0 55923 6300.00000 0 -8001236.377 8868642.514 -22536649.481 10 0 55923 7200.00000 0 -9006495.282 6244050.496 -23046072.207 10 0 55923 8100.00000 0 -10217237.183 3670692.025 -23108530.660 10 0 55923 9000.00000 0 -11604503.837 1212682.771 -22723473.520 10 0 55923 9900.00000 0 -13128724.015 -1072251.596 -21898975.962 10 0 55923 10800.00000 0 -14741291.200 -3134914.733 -20651537.787 10 0 55923 11700.00000 0 -16386526.064 -4936409.550 -19005727.036 10 0 55923 12600.00000 0 -18003941.082 -6449470.607 -16993678.527 10 0 55923 13500.00000 0 -19530713.465 -7659309.194 -14654458.576 10 0 55923 14400.00000 0 -20904265.174 -8563941.159 -12033308.740 10 0 55923 15300.00000 0 -22064845.238 -9173988.133 -9180782.862 10 0 55923 16200.00000 0 -22958010.193 -9511963.678 -6151792.779 10 0 55923 17100.00000 0 -23536902.908 -9611075.933 -3004579.023 10 0 55923 18000.00000 0 -23764238.167 -9513597.154 200376.178 10 0 55923 18900.00000 0 -23613915.019 -9268867.386 3401475.728 10 0 55923 19800.00000 0 -23072190.406 -8931013.855 6537155.848 10 0 55923 20700.00000 0 -22138365.696 -8556478.865 9547036.639 10 0 55923 21600.00000 0 -20824956.652 -8201456.860 12373055.901 10 0 55923 22500.00000 0 -19157337.573 -7919345.317 14960566.976 10 0 55923 23400.00000 0 -17172871.127 -7758314.216 17259381.414 10 0 55923 24300.00000 0 -14919555.820 -7759094.887 19224737.711 10 0 55923 25200.00000 0 -12454242.674 -7953081.108 20818177.927 10 0 55923 26100.00000 0 -9840490.486 -8360823.585 22008314.823 10 0 55923 27000.00000 0 -7146144.469 -8990983.876 22771473.395 10 0 55923 27900.00000 0 -4440735.294 -9839795.684 23092192.258 10 0 55923 28800.00000 0 -1792804.326 -10891061.035 22963572.192 10 0 55923 29700.00000 0 732734.765 -12116686.802 22387461.583 10 0 55923 30600.00000 0 3077087.888 -13477744.301 21374471.259 10 0 55923 31500.00000 0 5189820.253 -14926011.957 19943814.416 10 0 55923 32400.00000 0 7030747.804 -16405939.674 18122970.997 10 0 55923 33300.00000 0 8571397.890 -17856954.225 15947179.768 10 0 55923 34200.00000 0 9795974.383 -19216008.806 13458765.632 10 0 55923 35100.00000 0 10701783.596 -20420267.853 10706313.961 10 0 55923 36000.00000 0 11299100.797 -21409810.892 7743707.959 10 0 55923 36900.00000 0 11610481.869 -22130237.120 4629049.125 10 0 55923 37800.00000 0 11669549.693 -22535055.975 1423484.331 10 0 55923 38700.00000 0 11519308.673 -22587757.936 -1810034.125 10 0 55923 39600.00000 0 11210062.235 -22263473.878 -5008026.993 10 0 55923 40500.00000 0 10797026.147 -21550149.889 -8107775.566 10 0 55923 41400.00000 0 10337744.073 -20449186.367 -11048588.633 10 0 55923 42300.00000 0 9889420.103 -18975514.653 -13773020.092 10 0 55923 43200.00000 0 9506286.006 -17157109.654 -16228010.427 10 0 55923 44100.00000 0 9237118.255 -15033962.043 -18365927.880 10 0 55923 45000.00000 0 9123012.017 -12656557.168 -20145488.300 10 0 55923 45900.00000 0 9195506.624 -10083928.688 -21532536.572 10 0 55923 46800.00000 0 9475140.489 -7381372.293 -22500676.329 10 0 55923 47700.00000 0 9970493.736 -4617918.208 -23031738.711 10 0 55923 48600.00000 0 10677755.222 -1863669.676 -23116084.787 10 0 55923 49500.00000 0 11580827.954 812881.509 -22752739.925 10 0 55923 50400.00000 0 12651964.224 3347452.081 -21949361.661 10 0 55923 51300.00000 0 13852900.124 5682372.001 -20722045.599 10 0 55923 52200.00000 0 15136439.094 7768701.180 -19094976.400 10 0 55923 53100.00000 0 16448416.584 9567975.269 -17099933.195 10 0 55923 54000.00000 0 17729963.380 11053513.558 -14775660.579 10 0 55923 54900.00000 0 18919974.015 12211240.000 -12167117.970 10 0 55923 55800.00000 0 19957679.280 13039987.927 -9324621.521 10 0 55923 56700.00000 0 20785218.343 13551279.638 -6302893.913 10 0 55923 57600.00000 0 21350106.529 13768592.561 -3160038.332 10 0 55923 58500.00000 0 21607499.121 13726143.748 43546.149 10 0 55923 59400.00000 0 21522159.689 13467243.224 3246289.867 10 0 55923 60300.00000 0 21070052.975 13042283.598 6386600.185 10 0 55923 61200.00000 0 20239496.904 12506447.616 9404012.404 10 0 55923 62100.00000 0 19031825.403 11917226.726 12240324.865 10 0 55923 63000.00000 0 17461532.699 11331851.563 14840699.043 10 0 55923 63900.00000 0 15555890.156 10804739.318 17154705.362 10 0 55923 64800.00000 0 13354047.534 10385063.066 19137295.997 10 0 55923 65700.00000 0 10905651.258 10114544.116 20749686.423 10 0 55923 66600.00000 0 8269032.127 10025560.387 21960128.261 10 0 55923 67500.00000 0 5509032.812 10139651.996 22744557.295 10 0 55923 68400.00000 0 2694561.059 10466489.827 23087101.980 10 0 55923 69300.00000 0 -104032.978 11003354.515 22980439.663 10 0 55923 70200.00000 0 -2817648.309 11735152.550 22425990.170 10 0 55923 71100.00000 0 -5381082.212 12634973.828 21433939.058 10 0 55923 72000.00000 0 -7735525.595 13665171.908 20023086.127 10 0 55923 72900.00000 0 -9830798.421 14778925.372 18220518.324 10 0 55923 73800.00000 0 -11627228.763 15922217.175 16061110.110 10 0 55923 74700.00000 0 -13097093.179 17036149.514 13586858.618 10 0 55923 75600.00000 0 -14225554.529 18059495.891 10846065.147 10 0 55923 76500.00000 0 -15011054.868 18931380.293 7892378.792 10 0 55923 77400.00000 0 -15465144.952 19593966.510 4783722.111 10 0 55923 78300.00000 0 -15611757.099 19995039.354 1581122.151 10 0 55923 79200.00000 0 -15485953.257 20090363.581 -1652526.915 10 0 55923 80100.00000 0 -15132203.905 19845716.081 -4853741.101 10 0 55923 81000.00000 0 -14602274.673 19238501.562 -7959734.395 10 0 55923 81900.00000 0 -13952815.123 18258880.872 -10909687.442 10 0 55923 82800.00000 0 -13242757.103 16910363.398 -13645968.218 10 0 55923 83700.00000 0 -12530637.869 15209839.243 -16115277.821 10 0 55923 84600.00000 0 -11871965.456 13187051.943 -18269697.042 10 0 55923 85500.00000 0 -11316740.601 10883537.255 -20067612.552 99